TimeCST,TemperatureF,Dew PointF,Humidity,Sea Level PressureIn,VisibilityMPH,Wind Direction,Wind SpeedMPH,Gust SpeedMPH,PrecipitationIn,Events,Conditions,WindDirDegrees,DateUTC
12:15 AM,47.5,45.5,93,30.33,5.0,NNE,4.6,-,N/A,,Light Drizzle,30,2013-11-23 06:15:00
12:35 AM,46.8,44.6,92,30.32,7.0,NE,6.9,-,N/A,,Overcast,40,2013-11-23 06:35:00
12:55 AM,46.6,44.2,92,30.34,7.0,NNE,4.6,-,N/A,,Overcast,30,2013-11-23 06:55:00
1:15 AM,46.6,44.4,92,30.33,7.0,NNE,4.6,-,N/A,,Overcast,20,2013-11-23 07:15:00
1:35 AM,46.4,44.2,92,30.34,4.0,NNE,3.5,-,N/A,,Overcast,30,2013-11-23 07:35:00
1:55 AM,46.0,44.1,93,30.34,4.0,North,5.8,-,N/A,,Light Drizzle,10,2013-11-23 07:55:00
2:15 AM,45.5,43.5,93,30.35,5.0,North,8.1,-,N/A,,Overcast,10,2013-11-23 08:15:00
2:35 AM,45.1,43.0,92,30.35,7.0,North,5.8,-,N/A,,Overcast,10,2013-11-23 08:35:00
2:55 AM,45.0,42.8,92,30.35,5.0,North,9.2,16.1,N/A,,Overcast,360,2013-11-23 08:55:00
3:15 AM,44.8,42.8,93,30.35,10.0,North,4.6,-,N/A,,Overcast,360,2013-11-23 09:15:00
3:35 AM,44.6,42.3,91,30.35,5.0,North,8.1,-,N/A,,Drizzle,10,2013-11-23 09:35:00
3:55 AM,44.2,42.3,93,30.35,5.0,North,10.4,-,N/A,,Drizzle,360,2013-11-23 09:55:00
4:15 AM,44.1,42.1,93,30.36,5.0,North,8.1,-,N/A,,Drizzle,360,2013-11-23 10:15:00
4:35 AM,43.7,41.4,91,30.36,7.0,North,4.6,-,0.01,Rain,Rain,10,2013-11-23 10:35:00
4:55 AM,43.7,41.4,91,30.37,7.0,NNE,5.8,-,0.02,Rain,Rain,30,2013-11-23 10:55:00
5:15 AM,43.5,41.4,92,30.36,5.0,NNE,6.9,-,0.02,Rain,Heavy Rain,20,2013-11-23 11:15:00
5:35 AM,43.2,41.0,92,30.36,7.0,NNE,5.8,-,0.03,Rain,Light Rain,20,2013-11-23 11:35:00
5:55 AM,43.0,40.6,91,30.37,7.0,NNE,6.9,-,0.03,,Light Drizzle,20,2013-11-23 11:55:00
6:15 AM,42.8,40.5,91,30.38,7.0,NNE,4.6,16.1,N/A,,Drizzle,30,2013-11-23 12:15:00
6:35 AM,42.8,41.0,93,30.39,7.0,North,3.5,-,0.01,,Drizzle,10,2013-11-23 12:35:00
6:55 AM,42.8,40.6,92,30.40,7.0,NNE,3.5,-,0.01,,Drizzle,30,2013-11-23 12:55:00
7:15 AM,42.3,40.1,92,30.41,7.0,NNE,8.1,-,0.01,Rain,Rain,20,2013-11-23 13:15:00
7:35 AM,42.1,40.1,93,30.41,5.0,NNE,3.5,-,0.02,Rain,Light Rain,20,2013-11-23 13:35:00
7:55 AM,42.1,40.1,93,30.43,7.0,NNE,4.6,-,0.02,Rain,Light Rain,20,2013-11-23 13:55:00
8:15 AM,41.9,39.7,92,30.43,10.0,North,8.1,-,N/A,Rain,Light Rain,10,2013-11-23 14:15:00
8:35 AM,41.9,39.7,92,30.43,10.0,NNE,4.6,-,N/A,Rain,Rain,20,2013-11-23 14:35:00
8:55 AM,42.1,39.9,92,30.44,7.0,NE,4.6,-,N/A,,Overcast,40,2013-11-23 14:55:00
9:15 AM,41.9,39.9,93,30.45,5.0,North,8.1,-,N/A,,Overcast,360,2013-11-23 15:15:00
9:35 AM,41.9,39.7,92,30.45,3.0,NNE,6.9,-,N/A,,Overcast,30,2013-11-23 15:35:00
9:55 AM,42.1,39.9,92,30.46,4.0,North,6.9,-,N/A,,Overcast,360,2013-11-23 15:55:00
10:15 AM,42.3,40.1,92,30.46,5.0,North,9.2,-,N/A,,Overcast,360,2013-11-23 16:15:00
10:35 AM,42.1,40.1,93,30.47,4.0,North,5.8,-,N/A,,Overcast,10,2013-11-23 16:35:00
10:55 AM,42.3,39.9,91,30.47,7.0,NNE,5.8,-,N/A,,Overcast,20,2013-11-23 16:55:00
11:15 AM,42.3,40.3,93,30.46,2.5,North,8.1,-,N/A,,Overcast,360,2013-11-23 17:15:00
11:35 AM,41.9,40.1,93,30.45,3.0,North,6.9,-,N/A,,Overcast,360,2013-11-23 17:35:00
11:55 AM,42.1,40.1,93,30.45,3.0,North,10.4,-,N/A,,Overcast,360,2013-11-23 17:55:00
12:15 PM,41.5,39.6,93,30.45,7.0,North,10.4,-,N/A,,Overcast,10,2013-11-23 18:15:00
12:35 PM,41.9,39.6,91,30.44,7.0,NNE,5.8,-,N/A,,Overcast,30,2013-11-23 18:35:00
12:55 PM,42.1,39.7,91,30.44,7.0,North,8.1,-,N/A,,Light Drizzle,10,2013-11-23 18:55:00
1:15 PM,42.3,39.7,91,30.44,7.0,NNE,6.9,-,N/A,,Light Drizzle,20,2013-11-23 19:15:00
1:35 PM,42.4,40.1,91,30.43,7.0,NNE,5.8,-,N/A,Rain,Light Rain,20,2013-11-23 19:35:00
1:55 PM,43.2,40.3,90,30.43,10.0,North,6.9,-,N/A,,Overcast,10,2013-11-23 19:55:00
2:15 PM,43.3,40.3,89,30.43,10.0,NNE,8.1,-,N/A,,Overcast,30,2013-11-23 20:15:00
2:35 PM,43.7,40.3,88,30.43,10.0,NNE,6.9,-,N/A,,Overcast,20,2013-11-23 20:35:00
2:55 PM,43.9,39.7,85,30.43,10.0,NNE,3.5,-,N/A,,Overcast,30,2013-11-23 20:55:00
3:15 PM,44.2,39.9,85,30.44,10.0,North,5.8,-,N/A,,Overcast,10,2013-11-23 21:15:00
3:35 PM,44.4,39.6,83,30.44,10.0,North,5.8,-,N/A,,Overcast,10,2013-11-23 21:35:00
3:55 PM,44.8,40.3,84,30.44,10.0,NNE,4.6,-,N/A,,Overcast,30,2013-11-23 21:55:00
4:15 PM,44.8,39.9,83,30.44,10.0,NNE,4.6,-,N/A,,Scattered Clouds,20,2013-11-23 22:15:00
4:35 PM,44.8,40.1,84,30.45,10.0,North,4.6,-,N/A,,Scattered Clouds,360,2013-11-23 22:35:00
4:55 PM,44.8,40.3,84,30.45,10.0,North,3.5,-,N/A,,Mostly Cloudy,10,2013-11-23 22:55:00
5:15 PM,44.8,39.4,81,30.45,10.0,NNE,5.8,-,N/A,,Mostly Cloudy,20,2013-11-23 23:15:00
5:35 PM,44.2,38.5,80,30.44,10.0,North,5.8,-,N/A,,Clear,10,2013-11-23 23:35:00
5:55 PM,43.7,37.9,80,30.45,10.0,NNE,4.6,-,N/A,,Clear,30,2013-11-23 23:55:00
6:15 PM,43.3,37.8,81,30.46,10.0,North,5.8,-,N/A,,Clear,10,2013-11-24 00:15:00
6:35 PM,43.0,36.3,77,30.47,10.0,North,5.8,-,N/A,,Clear,10,2013-11-24 00:35:00
6:55 PM,42.6,35.6,76,30.47,10.0,North,5.8,-,N/A,,Clear,10,2013-11-24 00:55:00
7:15 PM,42.3,35.6,77,30.48,10.0,NNE,4.6,-,N/A,,Clear,20,2013-11-24 01:15:00
7:35 PM,42.1,35.2,77,30.48,10.0,NNE,3.5,-,N/A,,Clear,20,2013-11-24 01:35:00
7:55 PM,41.7,35.1,77,30.48,10.0,North,4.6,-,N/A,,Clear,10,2013-11-24 01:55:00
8:15 PM,41.4,34.3,76,30.49,10.0,North,5.8,-,N/A,,Clear,10,2013-11-24 02:15:00
8:35 PM,41.0,34.0,76,30.49,10.0,NNE,3.5,-,N/A,,Clear,20,2013-11-24 02:35:00
8:55 PM,40.5,34.0,78,30.49,10.0,Calm,Calm,-,N/A,,Scattered Clouds,0,2013-11-24 02:55:00
9:15 PM,40.1,34.0,79,30.50,10.0,Calm,Calm,-,N/A,,Scattered Clouds,0,2013-11-24 03:15:00
9:35 PM,39.7,34.2,80,30.50,10.0,Calm,Calm,-,N/A,,Clear,0,2013-11-24 03:35:00
9:55 PM,39.4,34.2,82,30.50,10.0,Calm,Calm,-,N/A,,Clear,0,2013-11-24 03:55:00
10:15 PM,39.2,33.8,81,30.51,10.0,Calm,Calm,-,N/A,,Clear,0,2013-11-24 04:15:00
10:35 PM,39.2,32.4,76,30.50,10.0,Calm,Calm,-,N/A,,Clear,0,2013-11-24 04:35:00
10:55 PM,38.8,32.0,76,30.51,10.0,NNE,4.6,-,N/A,,Clear,20,2013-11-24 04:55:00
11:15 PM,38.3,32.0,78,30.51,10.0,Calm,Calm,-,N/A,,Clear,0,2013-11-24 05:15:00
11:35 PM,38.3,32.0,78,30.51,10.0,Calm,Calm,-,N/A,,Clear,0,2013-11-24 05:35:00
11:55 PM,38.1,31.3,76,30.51,10.0,Calm,Calm,-,N/A,,Clear,0,2013-11-24 05:55:00